timestamp,surface_pressure_avg,surface_temp_avg,battery_voltage,lat,long
2023-11-13 17:19:00+00:00,,,0.0,47.84626,-54.09684
2023-11-13 17:29:00+00:00,,,0.0,47.84626,-54.09684
2023-11-13 17:39:00+00:00,,,0.0,47.84626,-54.09684
2023-11-13 17:49:00+00:00,,,0.0,47.84626,-54.09684
2023-11-13 17:59:00+00:00,,,0.0,47.84626,-54.09684
2023-11-13 18:09:00+00:00,,,0.0,47.84626,-54.09684
2023-11-13 18:19:00+00:00,191.1564,6.7,12.65,47.84626,-54.09684
2023-11-13 18:29:00+00:00,192.9481,6.75,12.65,47.84626,-54.09684
2023-11-13 18:39:00+00:00,195.3616,6.74,12.65,47.84626,-54.09684
2023-11-13 18:49:00+00:00,198.2115,6.76,12.65,47.84626,-54.09684
2023-11-13 18:59:00+00:00,201.2864,6.78,12.65,47.84626,-54.09684
2023-11-13 19:09:00+00:00,205.9848,6.79,12.65,47.84626,-54.09684
2023-11-13 19:19:00+00:00,211.8314,6.78,12.57,47.84626,-54.09684
2023-11-13 19:29:00+00:00,218.1815,6.76,12.57,47.84626,-54.09684
2023-11-13 19:39:00+00:00,222.6231,6.75,12.57,47.84626,-54.09684
2023-11-13 19:49:00+00:00,227.0831,6.7,12.57,47.84626,-54.09684
2023-11-13 19:59:00+00:00,233.6131,6.7,12.57,47.84626,-54.09684
2023-11-13 20:09:00+00:00,239.7364,6.7,12.57,47.84626,-54.09684
2023-11-13 20:19:00+00:00,244.563,6.7,12.49,47.84626,-54.09684
2023-11-13 20:29:00+00:00,251.8364,6.68,12.49,47.84626,-54.09684
2023-11-13 20:39:00+00:00,261.2714,6.64,12.49,47.84626,-54.09684
2023-11-13 20:49:00+00:00,264.8765,6.63,12.49,47.84626,-54.09684
2023-11-13 20:59:00+00:00,268.0564,6.65,12.49,47.84626,-54.09684
2023-11-13 21:09:00+00:00,276.4714,6.6,12.49,47.84626,-54.09684
2023-11-13 21:19:00+00:00,285.0647,6.59,12.41,47.84626,-54.09684
2023-11-13 21:29:00+00:00,287.8113,6.59,12.41,47.84626,-54.09684
2023-11-13 21:39:00+00:00,293.373,6.59,12.41,47.84626,-54.09684
2023-11-13 21:49:00+00:00,302.1964,6.5,12.41,47.84626,-54.09684
2023-11-13 21:59:00+00:00,308.9496,6.5,12.41,47.84626,-54.09684
2023-11-13 22:09:00+00:00,312.9214,6.5,12.41,47.84626,-54.09684
2023-11-13 22:19:01+00:00,321.83299999999997,6.5,12.41,47.84626,-54.09684
2023-11-13 22:29:01+00:00,331.7247,6.5,12.41,47.84626,-54.09684
2023-11-13 22:39:01+00:00,337.0247,6.5,12.41,47.84626,-54.09684
2023-11-13 22:49:01+00:00,340.7112,6.5,12.41,47.84626,-54.09684
2023-11-13 22:59:01+00:00,346.4047,6.49,12.41,47.84626,-54.09684
2023-11-13 23:09:01+00:00,348.7229,6.49,12.41,47.84626,-54.09684
2023-11-13 23:19:00+00:00,347.1678,6.48,12.33,47.84626,-54.09684
2023-11-13 23:29:00+00:00,349.7762,6.49,12.33,47.84626,-54.09684
2023-11-13 23:39:00+00:00,354.4731,6.5,12.33,47.84626,-54.09684
2023-11-13 23:49:00+00:00,351.798,6.49,12.33,47.84626,-54.09684
2023-11-13 23:59:00+00:00,348.55300000000005,6.5,12.33,47.84626,-54.09684
